This demonstration page uses our WeatherBlox Daily Observations layout. Learn more.

Left ArrowRight Arrow

Hourly Observations for October 15, 2022

Temp ( °F °C ) Dew Point ( °F °C ) Humidity (%) Winds ( mph kmh ) Pressure ( in mb ) Visibility ( mi km ) Precip ( " mm )
12:53 am 00:53 Clear 64 17.8 42 5.6 45 45 Calm 29.76 1008 10 16 0.00 0.00
1:53 am 01:53 Clear 62 16.7 41 5 46 46 Calm 29.78 1008 10 16 0.00 0.00
2:53 am 02:53 Clear 61 16.1 41 5 48 48 Calm 29.79 1009 10 16 0.00 0.00
3:53 am 03:53 Clear 60 15.6 42 5.6 51 51 Calm 29.79 1009 10 16 0.00 0.00
4:53 am 04:53 Clear 58 14.4 42 5.6 55 55 Calm 29.80 1009 10 16 0.00 0.00
5:53 am 05:53 Clear 56 13.3 41 5 57 57 Calm 29.81 1009 10 16 0.00 0.00
6:53 am 06:53 Clear 55 12.8 40 4.4 57 57 Calm 29.83 1010 10 16 0.00 0.00
7:53 am 07:53 Sunny 56 13.3 41 5 57 57 Calm 29.83 1010 10 16 0.00 0.00
8:53 am 08:53 Sunny 65 18.3 41 5 41 41 Calm 29.85 1011 10 16 0.00 0.00
9:53 am 09:53 Sunny 71 21.7 42 5.6 35 35 Calm 29.84 1011 10 16 0.00 0.00
10:53 am 10:53 Sunny 77 25 42 5.6 29 29 Calm 29.84 1010 10 16 0.00 0.00
11:53 am 11:53 Sunny 82 27.8 43 6.1 25 25 Calm 29.82 1010 10 16 0.00 0.00
12:53 pm 12:53 Sunny 85 29.4 41 5 21 21 Calm 29.80 1009 10 16 0.00 0.00
1:53 pm 13:53 Sunny 88 31.1 41 5 19 19 E 5 7 29.77 1008 10 16 0.00 0.00
2:53 pm 14:53 Sunny 90 32.2 36 2.2 15 15 Calm 29.74 1007 10 16 0.00 0.00
3:53 pm 15:53 Sunny 91 32.8 35 1.7 14 14 Calm 29.73 1007 10 16 0.00 0.00
4:53 pm 16:53 Sunny 91 32.8 42 5.6 18 18 S 6 9 29.72 1007 10 16 0.00 0.00
5:53 pm 17:53 Sunny 89 31.7 43 6.1 20 20 SSE 6 9 29.72 1006 10 16 0.00 0.00
6:53 pm 18:53 Clear 81 27.2 44 6.7 27 27 Calm 29.73 1007 10 16 0.00 0.00
7:53 pm 19:53 Clear 78 25.6 45 7.2 31 31 Calm 29.75 1008 10 16 0.00 0.00
8:53 pm 20:53 Clear 74 23.3 45 7.2 36 36 Calm 29.77 1008 10 16 0.00 0.00
9:53 pm 21:53 Clear 73 22.8 47 8.3 39 39 Calm 29.79 1009 10 16 0.00 0.00
10:53 pm 22:53 Clear 70 21.1 48 8.9 46 46 Calm 29.82 1010 10 16 0.00 0.00
11:53 pm 23:53 Clear 66 18.9 47 8.3 50 50 N 3 6 29.85 1011 10 16 0.00 0.00

Powered by AerisWeather